Loading…
Loading parcel record…
Hamilton, NJ·Mercer County
Owner email, phone, and authorized agent are available on Pro.
| Date | Price | Book / Page | Verified by |
|---|---|---|---|
| 11/17/2021 | $1 | 6464 / 1012 | Tax assessor |
| 7/12/2011 | $1 | 6123 / 746 | Tax assessor |
| 6/22/2006 | $1 | 5408 / 172 | Tax assessor |
| 7/15/2004 | $137,500 | 4798 / 84 | Tax assessor |
| 12/30/1991 | $83,000 | 2589 / 874 | Tax assessor |
Activity captured from the county clerk's daily feed. Includes deeds, mortgages, and other recorded filings.
| Date | Type | Grantor | Grantee | Book / Page | Instrument |
|---|---|---|---|---|---|
| 2026-04-09 | UCC CONTINUATION | — | — | 260 / 1904 | 2026015253 |
| 2026-03-02 | DISCHARGE OF MORTGAGE | — | — | 1692 / 871 | 2026008612 |
| 2026-02-17 | DEED | — | — | 6618 / 1538 | 2026006269 |
| 2022-03-03 | DEED | — | — | 6476 / 1815 | 2022012000 |
| 2021-12-14 | DEED | — | — | 6467 / 1307 | 2021073756 |
| 2021-09-23 | MORTGAGE | — | — | 11667 / 1758 | 2021058463 |
| 2021-09-23 | DEED | — | — | 6457 / 1580 | 2021058462 |
| 2021-08-18 | DEED | — | — | 6452 / 1989 | 2021050132 |
| 2021-04-28 | DEED | — | — | 6438 / 1980 | 2021026142 |
| 2020-04-03 | NOTICE OF SETTLEMENT | — | — | 1528 / 995 | 2020015041 |
| 2019-05-13 | MISC DEED | — | — | 6366 / 1618 | 2019019322 |
| 2018-11-19 | DEED | — | — | 6348 / 1900 | 2018049397 |
| 2018-05-30 | DISCHARGE OF MORTGAGE | — | — | 1565 / 688 | 2018022277 |
| 2018-05-30 | DISCHARGE OF MORTGAGE | — | — | 1565 / 685 | 2018022276 |
| 2018-05-30 | DISCHARGE OF MORTGAGE | — | — | 1565 / 682 | 2018022275 |
| 2018-05-30 | DISCHARGE OF MORTGAGE | — | — | 1565 / 679 | 2018022274 |
| 2018-05-30 | DEED | — | — | 6328 / 1092 | 2018022273 |
| 2018-05-14 | NOTICE OF SETTLEMENT | — | — | 1500 / 1984 | 2018019686 |
| 2018-04-05 | DISCHARGE OF MORTGAGE | — | — | 1563 / 617 | 2018014217 |
| 2018-04-05 | DISCHARGE OF MORTGAGE | — | — | 1563 / 614 | 2018014216 |
| 2018-04-03 | MISC DEED | — | — | 6322 / 213 | 2018013846 |
| 2018-04-03 | DISCHARGE OF MORTGAGE | — | — | 1563 / 434 | 2018013845 |
| 2018-04-03 | DISCHARGE OF MORTGAGE | — | — | 1563 / 431 | 2018013844 |
| 2001-09-13 | DD6 | — | — | 4130 / 58 | 2001039266 |
| 2001-02-08 | ARL | — | — | 5728 / 105 | 2001004150 |